This is the latest recevied weather packets stored in our database for station/object K8GLX. If no packets are shown the sender has not sent any weather packets the latest 1 day(s).
| Time | Temp. | Humidity | Pressure | Rain* | Wind** | Luminosity | Snow |
|---|---|---|---|---|---|---|---|
| 1778030504 | 9.44° C | 98% | 1008.5 hPa | 0.76 mm | - | 0 W/m² | - |
| 1778030209 | 9.44° C | 98% | 1008.5 hPa | 0.51 mm | - | 0 W/m² | - |
| 1778029902 | 9.44° C | 98% | 1008.5 hPa | 0.51 mm | - | 0 W/m² | - |
| 1778029608 | 9.44° C | 98% | 1008.5 hPa | 0.51 mm | - | 0 W/m² | - |
| 1778029301 | 9.44° C | 98% | 1008.5 hPa | 0.51 mm | - | 0 W/m² | - |
| 1778029006 | 9.44° C | 98% | 1008.2 hPa | 0.51 mm | - | 0 W/m² | - |
| 1778028700 | 9.44° C | 98% | 1008.5 hPa | 0.25 mm | - | 0 W/m² | - |
| 1778028532 | 9.44° C | 98% | 1008.2 hPa | 0.51 mm | - | 0 W/m² | - |
| 1778028098 | 9.44° C | 97% | 1008.5 hPa | 0.51 mm | - | 0 W/m² | - |
| 1778027797 | 9.44° C | 97% | 1008.2 hPa | 0.51 mm | - | 0 W/m² | - |
| 1778027490 | 9.44° C | 97% | 1008.5 hPa | 0.51 mm | - | 0 W/m² | - |
| 1778027324 | 9.44° C | 97% | 1008.2 hPa | 0.51 mm | - | 0 W/m² | - |
| 1778026596 | 9.44° C | 97% | 1008.2 hPa | 1.27 mm | - | 0 W/m² | - |
| 1778026293 | 9.44° C | 97% | 1007.8 hPa | 2.29 mm | - | 2 W/m² | - |
| 1778026128 | 9.44° C | 97% | 1007.8 hPa | 2.79 mm | - | 4 W/m² | - |
| 1778024599 | 9.44° C | 97% | 1008.5 hPa | 3.3 mm | - | 7 W/m² | - |
| 1778023592 | 9.44° C | 97% | 1008.5 hPa | 4.06 mm | - | 12 W/m² | - |
| 1778023411 | 9.44° C | 97% | 1008.5 hPa | 4.06 mm | - | 12 W/m² | - |
| 1778022684 | 9.44° C | 97% | 1008.5 hPa | 3.05 mm | - | 5 W/m² | - |
| 1778020878 | 9.44° C | 96% | 1008.9 hPa | 2.79 mm | - | 13 W/m² | - |
| 1778019676 | 9.44° C | 96% | 1008.5 hPa | 2.29 mm | - | 15 W/m² | - |
| 1778018781 | 9.44° C | 96% | 1008.2 hPa | 1.52 mm | - | 20 W/m² | - |
| 1778017271 | 9.44° C | 96% | 1008.2 hPa | 0 mm | - | 23 W/m² | - |
| 1778016975 | 9.44° C | 96% | 1008.5 hPa | 0 mm | - | 39 W/m² | - |
| 1778016502 | 9.44° C | 96% | 1008.2 hPa | 0 mm | - | 43 W/m² | - |
* Rain latest hour (hover to see other rain measurements)
** Current wind speed in m/s (hover to see current wind gust speed)